#timestamp,LO_Frequency,Hit 
1498629615.1,286046978.3,N
1498629616.0,286046978.3,N
1498629635.8,286046978.0,N
1498629655.7,286046978.2,N
1498629675.5,286046977.3,N
1498629695.3,286046978.5,N
1498629715.2,286046975.7,N
1498629735.0,286046978.5,N
1498629735.9,286046978.5,N
1498629755.8,286046977.0,N
1498629775.6,286046978.8,N
1498629795.4,286046977.1,N
1498629815.3,286046976.0,N
1498629835.1,286046976.6,N
1498629855.9,286046976.1,N
1498629875.7,286046976.9,N
1498629895.5,286046976.2,N
1498629915.4,286046976.3,N
1498629935.2,286046977.0,N
1498629955.0,286046975.7,N
1498629955.9,286046975.7,N
1498629975.8,286046977.2,N
1498629995.6,286046974.1,N
1498630015.5,286046974.2,N
1498630035.3,286046974.9,N
1498630055.1,286046972.6,N
1498630075.9,286046973.3,N
1498630095.7,286046973.4,N
1498630115.5,286046973.7,N
1498630135.4,286046973.7,N
1498630155.2,286046973.8,N
1498630175.1,286046973.4,N
1498630176.0,286046973.4,N
1498630195.8,286046973.2,N
1498630215.6,286046973.5,N
1498630235.5,286046986.3,N
1498630255.3,286046972.8,N
1498630275.2,286046973.6,N
1498630295.9,286046971.0,N
1498630315.7,286046974.7,N
1498630335.6,286046974.5,N
1498630355.4,286046974.9,N
1498630375.2,286046975.5,N
1498630395.1,286046973.6,N
1498630396.0,286046973.6,N
1498630415.8,286046972.6,N
1498630435.7,286046970.9,N
1498630455.5,286046973.3,N
1498630475.3,286046973.8,N
1498630495.2,286046973.9,N
1498630515.0,286046973.5,N
1498630515.9,286046973.5,N
1498630535.8,286046973.9,N
1498630555.6,286046973.7,N
1498630575.4,286046973.7,N
1498630595.3,286046973.9,N
1498630615.1,286046973.8,N
1498630635.9,286046973.3,N
1498630655.7,286046973.5,N
1498630675.5,286046973.4,N
1498630695.4,286046973.1,N
1498630715.2,286046973.5,N
1498630735.0,286046971.2,N
1498630735.9,286046971.2,N
1498630755.8,286046972.1,N
1498630775.6,286046971.0,N
1498630795.5,286046971.4,N
1498630815.3,286046973.4,N
1498630835.1,286046973.8,N
1498630855.9,286046971.3,N
1498630875.7,286046974.0,N
1498630895.5,286046973.4,N
1498630915.4,286046972.2,N
1498630935.2,286046969.7,N
1498630955.1,286046967.8,N
1498630956.0,286046967.8,N
1498630975.8,286046970.0,N
1498630995.6,286046972.1,N
1498631015.5,286046971.7,N
1498631035.3,286046971.8,N
1498631055.2,286046971.4,N
1498631075.9,286046971.7,N
1498631095.7,286046972.4,N
1498631115.6,286046969.9,N
1498631135.4,286046969.7,N
1498631155.2,286046971.9,N
1498631175.1,286046971.8,N
1498631176.0,286046971.8,N
1498631195.8,286046972.3,N
1498631215.7,286046969.7,N
1498631235.5,286046972.4,N
1498631255.3,286046972.4,N
1498631275.2,286046972.1,N
1498631295.0,286046971.1,N
1498631295.9,286046971.1,N
1498631315.8,286046969.8,N
1498631335.6,286046970.6,N
1498631355.4,286046970.5,N
1498631375.3,286046970.8,N
1498631395.1,286046970.2,N
1498631415.8,286046968.0,N
1498631435.7,286046968.1,N
1498631455.5,286046969.2,N
1498631475.4,286046968.5,N
1498631495.2,286046970.7,N
1498631515.0,286046968.1,N
1498631515.9,286046968.1,N
1498631535.8,286046968.8,N
1498631555.6,286046970.7,N
1498631575.4,286046968.8,N
1498631595.3,286046968.8,N
1498631615.1,286046966.5,N
1498631635.9,286046967.3,N
1498631655.7,286046967.2,N
1498631675.5,286046966.6,N
1498631695.4,286046966.2,N
1498631715.2,286046966.5,N
1498631735.1,286046966.1,N
1498631736.0,286046966.1,N
1498631755.8,286046967.4,N
1498631775.6,286046966.9,N
1498631795.5,286046960.7,N
1498631815.3,286046966.4,N
1498631835.1,286046966.8,N
1498631885.9,286046964.9,Y
1498631895.8,286046979.1,N
1498631915.7,286046996.9,N
1498631935.5,286046997.7,N
1498631955.3,286046996.7,N
1498631975.2,286046996.9,N
1498631995.0,286046999.2,N
1498631995.9,286046999.2,N
1498632015.8,286046997.9,N
1498632035.6,286046997.1,N
1498632055.4,286046997.2,N
1498632075.3,286046997.4,N
1498632095.1,286046999.4,N
1498632115.8,286046998.5,N
1498632135.7,286046997.7,N
1498632155.5,286046997.4,N
1498632175.4,286046997.7,N
1498632195.2,286046997.7,N
1498632215.0,286046996.7,N
1498632215.9,286046996.7,N
1498632235.8,286046996.9,N
1498632255.6,286046996.7,N
1498632275.4,286046998.0,N
1498632295.3,286046994.9,N
1498632315.1,286046995.7,N
1498632335.9,286046998.0,N
1498632355.7,286046995.3,N
1498632375.5,286046997.5,N
1498632395.4,286046997.1,N
1498632415.2,286046993.9,N
1498632435.1,286046997.9,N
1498632436.0,286046997.9,N
1498632455.8,286046995.1,N
1498632475.6,286046993.3,N
1498632495.5,286046996.1,N
1498632515.3,286046996.3,N
1498632535.1,286046994.6,N
1498632555.9,286046993.6,N
1498632575.7,286046993.8,N
1498632595.6,286046991.8,N
1498632615.4,286046994.7,N
1498632635.2,286046994.3,N
1498632655.1,286046992.8,N
1498632656.0,286046992.8,N
1498632675.8,286046992.0,N
1498632695.7,286046991.3,N
1498632715.5,286046990.4,N
1498632735.3,286046989.6,N
1498632755.2,286046989.6,N
1498632775.0,286046989.8,N
1498632775.9,286046989.8,N
1498632795.7,286046987.9,N
1498632815.6,286046986.9,N
1498632835.4,286046989.4,N
1498632855.3,286046989.2,N
1498632875.1,286046988.7,N
1498632876.0,286046988.7,N
1498632895.8,286046989.0,N
1498632915.7,286046990.8,N
1498632935.5,286046987.4,N
1498632955.3,286046989.9,N
1498632975.2,286046985.7,N
1498632995.0,286046986.9,N
1498632995.9,286046986.9,N
1498633015.8,286046987.0,N
1498633035.6,286046989.0,N
1498633055.4,286046989.1,N
1498633075.3,286046987.7,N
1498633095.1,286046991.5,N
1498633115.9,286046988.7,N
1498633135.7,286046989.3,N
1498633155.5,286046986.9,N
1498633175.4,286046988.9,N
1498633195.2,286046989.2,N
